User: anonymous   Login
Location: Oshawa
(43.9000°N, 78.8670°W)
Time: 08:04:00
(UTC-04:00)
Language:

Cosmos 1707 Rocket - Orbit

View from above orbital plane
View from above orbital plane
View from above satellite
View from above satellite

Ground track
Ground track

The orbit data is extracted from the following two-line orbital elements,

1 16327U 85113B   15116.54369840  .00000648  00000-0  76376-4 0  9991
2 16327 082.5324 103.9441 0020448 052.1995 083.5373 14.83110487585864
Epoch (UTC): 26 April 2015 13:02:55
Eccentricity: 0.0020448
inclination: 82.5324°
perigee height: 605 km
apogee height: 634 km
right ascension of ascending node: 103.9441°
argument of perigee: 52.1995°
revolutions per day: 14.83110487
mean anomaly at epoch: 83.5373°
orbit number at epoch: 58586

The dashed part of the orbit path shows where the satellite is in the earth's shadow,  

DLR